| time (UTC) | temp C | wind direction | speed KPH | gust KPH | rain 1hr cm | rain 24hr cm | rain mn cm | humidity % | barometer mb |
| 20260502214948 | 10 | 204 | 4.8 | 4.8 | 0.00 | 0.03 | 0.03 | 92 | 1010.7 |
| 20260502214445 | 10 | 242 | 0.0 | 1.6 | 0.00 | 0.03 | 0.03 | 92 | 1010.7 |
| 20260502213942 | 10 | 194 | 9.7 | 12.9 | 0.00 | 0.03 | 0.03 | 91 | 1010.7 |
| 20260502213439 | 10 | 234 | 1.6 | 1.6 | 0.00 | 0.03 | 0.03 | 91 | 1010.7 |
| 20260502212937 | 10 | 237 | 3.2 | 4.8 | 0.00 | 0.03 | 0.03 | 91 | 1010.4 |
| 20260502212436 | 10 | 184 | 4.8 | 4.8 | 0.00 | 0.03 | 0.03 | 91 | 1010.7 |
| 20260502211932 | 10 | 236 | 0.0 | 1.6 | 0.00 | 0.03 | 0.03 | 90 | 1010.4 |
| 20260502211428 | 10 | 148 | 3.2 | 6.4 | 0.00 | 0.03 | 0.03 | 90 | 1010.4 |
| 20260502210926 | 10 | 217 | 1.6 | 4.8 | 0.00 | 0.03 | 0.03 | 90 | 1010.4 |
| 20260502210423 | 10 | 192 | 6.4 | 8.0 | 0.00 | 0.03 | 0.03 | 89 | 1010.4 |
| 20260502205920 | 11 | 226 | 1.6 | 4.8 | 0.00 | 0.03 | 0.03 | 88 | 1010.4 |
| 20260502205416 | 11 | 214 | 3.2 | 4.8 | 0.00 | 0.03 | 0.03 | 88 | 1010.4 |
| 20260502204913 | 11 | 216 | 3.2 | 4.8 | 0.00 | 0.03 | 0.03 | 87 | 1010.4 |
| 20260502204410 | 11 | 204 | 4.8 | 6.4 | 0.00 | 0.03 | 0.03 | 87 | 1010.4 |
| 20260502203908 | 11 | 216 | 3.2 | 4.8 | 0.00 | 0.03 | 0.03 | 86 | 1010.7 |
| 20260502203405 | 11 | 154 | 4.8 | 6.4 | 0.00 | 0.03 | 0.03 | 86 | 1010.7 |
| 20260502202900 | 11 | 222 | 6.4 | 8.0 | 0.00 | 0.03 | 0.03 | 85 | 1010.4 |
| 20260502202358 | 11 | 246 | 1.6 | 4.8 | 0.00 | 0.03 | 0.03 | 87 | 1010.7 |
| 20260502201856 | 11 | 235 | 1.6 | 1.6 | 0.00 | 0.03 | 0.03 | 88 | 1010.7 |
| 20260502201352 | 11 | 224 | 4.8 | 6.4 | 0.00 | 0.03 | 0.03 | 89 | 1010.7 |
| 20260502200848 | 10 | 155 | 4.8 | 6.4 | 0.00 | 0.03 | 0.03 | 91 | 1010.7 |
| 20260502200344 | 10 | 219 | 3.2 | 4.8 | 0.00 | 0.03 | 0.03 | 91 | 1011.0 |
| 20260502195842 | 10 | 223 | 3.2 | 4.8 | 0.00 | 0.03 | 0.03 | 91 | 1010.7 |
| 20260502195338 | 10 | 219 | 6.4 | 8.0 | 0.00 | 0.03 | 0.03 | 91 | 1011.0 |
| 20260502194836 | 10 | 202 | 8.0 | 11.3 | 0.00 | 0.03 | 0.03 | 91 | 1011.0 |
| 20260502194332 | 10 | 191 | 11.3 | 12.9 | 0.00 | 0.03 | 0.03 | 91 | 1011.4 |
| 20260502193828 | 10 | 212 | 11.3 | 12.9 | 0.00 | 0.03 | 0.03 | 91 | 1011.0 |
| 20260502193325 | 10 | 247 | 4.8 | 6.4 | 0.00 | 0.03 | 0.03 | 91 | 1011.0 |
| 20260502192821 | 10 | 180 | 8.0 | 8.0 | 0.00 | 0.03 | 0.03 | 91 | 1011.0 |
| 20260502192318 | 10 | 215 | 4.8 | 6.4 | 0.00 | 0.03 | 0.03 | 91 | 1011.4 |
| 20260502191815 | 10 | 241 | 1.6 | 1.6 | 0.00 | 0.03 | 0.03 | 92 | 1011.4 |
| 20260502191313 | 10 | 201 | 4.8 | 6.4 | 0.00 | 0.03 | 0.03 | 92 | 1011.4 |
| 20260502190810 | 10 | 262 | 1.6 | 1.6 | 0.00 | 0.03 | 0.03 | 92 | 1011.4 |
| 20260502190307 | 10 | 225 | 4.8 | 8.0 | 0.00 | 0.03 | 0.03 | 92 | 1011.4 |
| 20260502185803 | 10 | 215 | 4.8 | 6.4 | 0.00 | 0.03 | 0.03 | 92 | 1011.4 |
| 20260502185259 | 10 | 225 | 6.4 | 8.0 | 0.00 | 0.03 | 0.03 | 92 | 1011.7 |
| 20260502184756 | 10 | 209 | 4.8 | 6.4 | 0.00 | 0.03 | 0.03 | 92 | 1011.7 |
| 20260502184251 | 10 | 182 | 4.8 | 6.4 | 0.00 | 0.03 | 0.03 | 92 | 1011.7 |
| 20260502183748 | 10 | 217 | 4.8 | 6.4 | 0.00 | 0.03 | 0.03 | 92 | 1012.1 |
| 20260502183244 | 10 | 227 | 4.8 | 6.4 | 0.00 | 0.03 | 0.03 | 92 | 1011.7 |
| 20260502182739 | 10 | 257 | 0.0 | 1.6 | 0.00 | 0.03 | 0.03 | 92 | 1011.7 |
| 20260502182235 | 10 | 217 | 4.8 | 6.4 | 0.00 | 0.03 | 0.03 | 92 | 1011.7 |
| 20260502181732 | 10 | 170 | 3.2 | 6.4 | 0.00 | 0.03 | 0.03 | 92 | 1011.7 |
| 20260502181231 | 10 | 208 | 6.4 | 8.0 | 0.00 | 0.03 | 0.03 | 92 | 1012.1 |
| 20260502180728 | 10 | 213 | 8.0 | 8.0 | 0.00 | 0.03 | 0.03 | 92 | 1011.7 |
| 20260502180226 | 10 | 249 | 1.6 | 1.6 | 0.00 | 0.03 | 0.03 | 92 | 1011.4 |
| 20260502170150 | 10 | 246 | 3.2 | 6.4 | 0.03 | 0.03 | 0.03 | 91 | 1012.1 |
| 20260502164136 | 10 | 277 | 0.0 | 1.6 | 0.00 | 0.00 | 0.00 | 90 | 1012.1 |
| 20260502163632 | 10 | 281 | 1.6 | 1.6 | 0.00 | 0.00 | 0.00 | 90 | 1012.1 |
| 20260502163129 | 10 | 265 | 1.6 | 1.6 | 0.00 | 0.00 | 0.00 | 90 | 1012.1 |
| 20260502162626 | 10 | 282 | 4.8 | 4.8 | 0.00 | 0.00 | 0.00 | 90 | 1012.4 |
| 20260502162123 | 10 | 265 | 0.0 | 0.0 | 0.00 | 0.00 | 0.00 | 91 | 1012.1 |
| 20260502161620 | 10 | 207 | 4.8 | 6.4 | 0.00 | 0.00 | 0.00 | 91 | 1011.7 |
| 20260502161117 | 10 | 270 | 0.0 | 0.0 | 0.00 | 0.00 | 0.00 | 91 | 1012.1 |
| 20260502160615 | 10 | 243 | 3.2 | 4.8 | 0.00 | 0.00 | 0.00 | 91 | 1012.4 |
| 20260502160114 | 10 | 246 | 3.2 | 4.8 | 0.00 | 0.00 | 0.00 | 91 | 1012.1 |
| 20260502152028 | 10 | 213 | 1.6 | 1.6 | 0.00 | 0.00 | 0.00 | 92 | 1012.4 |
| 20260502151525 | 10 | 211 | 4.8 | 6.4 | 0.00 | 0.00 | 0.00 | 92 | 1012.4 |
| 20260502151022 | 9 | 213 | 3.2 | 4.8 | 0.00 | 0.00 | 0.00 | 91 | 1012.4 |
| 20260502150520 | 9 | 233 | 4.8 | 6.4 | 0.00 | 0.00 | 0.00 | 91 | 1012.4 |
| 20260502130404 | 10 | 271 | 0.0 | 0.0 | 0.00 | 0.00 | 0.00 | 85 | 1012.4 |
| 20260502123347 | 10 | 257 | 0.0 | 0.0 | 0.00 | 0.00 | 0.00 | 86 | 1012.7 |
| 20260502122844 | 10 | 270 | 1.6 | 4.8 | 0.00 | 0.00 | 0.00 | 86 | 1012.7 |
| 20260502122340 | 10 | 245 | 3.2 | 4.8 | 0.00 | 0.00 | 0.00 | 85 | 1012.7 |
| 20260502121839 | 10 | 278 | 6.4 | 6.4 | 0.00 | 0.00 | 0.00 | 85 | 1013.1 |
| 20260502121336 | 10 | 260 | 1.6 | 4.8 | 0.00 | 0.00 | 0.00 | 85 | 1013.1 |
| 20260502120833 | 10 | 338 | 4.8 | 4.8 | 0.00 | 0.00 | 0.00 | 85 | 1013.1 |
| 20260502120329 | 10 | 277 | 1.6 | 1.6 | 0.00 | 0.00 | 0.00 | 85 | 1013.1 |
| 20260502115826 | 10 | 282 | 1.6 | 1.6 | 0.00 | 0.00 | 0.00 | 85 | 1013.1 |
| 20260502115324 | 10 | 323 | 4.8 | 6.4 | 0.00 | 0.00 | 0.00 | 85 | 1012.7 |
| 20260502114820 | 10 | 284 | 0.0 | 0.0 | 0.00 | 0.00 | 0.00 | 85 | 1012.7 |
| 20260502114317 | 10 | 289 | 0.0 | 0.0 | 0.00 | 0.00 | 0.00 | 85 | 1012.4 |
| 20260502113814 | 10 | 269 | 0.0 | 0.0 | 0.00 | 0.00 | 0.00 | 86 | 1012.4 |
| 20260502113311 | 10 | 266 | 0.0 | 0.0 | 0.00 | 0.00 | 0.00 | 87 | 1012.7 |
| 20260502112810 | 10 | 267 | 0.0 | 0.0 | 0.00 | 0.00 | 0.00 | 87 | 1012.7 |
| 20260502112307 | 10 | 265 | 0.0 | 0.0 | 0.00 | 0.00 | 0.00 | 87 | 1013.1 |
| 20260502111804 | 9 | 262 | 0.0 | 0.0 | 0.00 | 0.00 | 0.00 | 88 | 1012.7 |
| 20260502111301 | 9 | 259 | 0.0 | 0.0 | 0.00 | 0.00 | 0.00 | 88 | 1012.7 |
| 20260502110758 | 9 | 265 | 0.0 | 0.0 | 0.00 | 0.00 | 0.00 | 88 | 1012.4 |
| 20260502110256 | 8 | 270 | 0.0 | 0.0 | 0.00 | 0.00 | 0.00 | 89 | 1012.4 |
| 20260502105754 | 8 | 269 | 0.0 | 0.0 | 0.00 | 0.00 | 0.00 | 89 | 1012.4 |
| 20260502105250 | 8 | 277 | 0.0 | 0.0 | 0.00 | 0.00 | 0.00 | 89 | 1012.4 |
| 20260502104748 | 8 | 277 | 0.0 | 0.0 | 0.00 | 0.00 | 0.00 | 89 | 1012.4 |
| 20260502104245 | 8 | 277 | 0.0 | 0.0 | 0.00 | 0.00 | 0.00 | 89 | 1012.4 |
| 20260502103743 | 8 | 277 | 0.0 | 0.0 | 0.00 | 0.00 | 0.00 | 89 | 1012.4 |
| 20260502103240 | 8 | 277 | 0.0 | 0.0 | 0.00 | 0.00 | 0.00 | 89 | 1012.1 |
| 20260502102738 | 8 | 277 | 0.0 | 0.0 | 0.00 | 0.00 | 0.00 | 90 | 1012.4 |
| 20260502102233 | 8 | 278 | 0.0 | 0.0 | 0.00 | 0.00 | 0.00 | 89 | 1012.4 |
| 20260502101732 | 8 | 278 | 0.0 | 0.0 | 0.00 | 0.00 | 0.00 | 89 | 1012.1 |
| 20260502101230 | 8 | 278 | 0.0 | 0.0 | 0.00 | 0.00 | 0.00 | 89 | 1012.1 |
| 20260502100727 | 8 | 275 | 0.0 | 0.0 | 0.00 | 0.00 | 0.00 | 89 | 1012.4 |
| 20260502100226 | 8 | 288 | 0.0 | 0.0 | 0.00 | 0.00 | 0.00 | 89 | 1012.1 |
| 20260502091200 | 8 | 272 | 0.0 | 0.0 | 0.00 | 0.00 | 0.00 | 86 | 1012.1 |
| 20260502090657 | 8 | 258 | 0.0 | 0.0 | 0.00 | 0.00 | 0.00 | 86 | 1012.1 |
| 20260502090154 | 8 | 269 | 0.0 | 0.0 | 0.00 | 0.00 | 0.00 | 86 | 1012.4 |
| 20260502071049 | 8 | 256 | 0.0 | 0.0 | 0.00 | 0.00 | 0.00 | 84 | 1012.1 |
| 20260502070547 | 8 | 257 | 0.0 | 0.0 | 0.00 | 0.00 | 0.00 | 84 | 1012.4 |
| 20260502070045 | 7 | 262 | 0.0 | 0.0 | 0.00 | 0.00 | 0.00 | 84 | 1012.4 |
| 20260502065543 | 7 | 261 | 0.0 | 0.0 | 0.00 | 0.00 | 0.00 | 84 | 1012.4 |
| 20260502065040 | 8 | 275 | 0.0 | 0.0 | 0.00 | 0.00 | 0.00 | 83 | 1012.1 |
| 20260502064539 | 8 | 279 | 0.0 | 0.0 | 0.00 | 0.00 | 0.00 | 83 | 1012.4 |
| 20260502064036 | 8 | 278 | 0.0 | 0.0 | 0.00 | 0.00 | 0.00 | 83 | 1012.4 |
| 20260502063533 | 8 | 278 | 0.0 | 0.0 | 0.00 | 0.00 | 0.00 | 83 | 1012.4 |
| 20260502063031 | 8 | 278 | 0.0 | 0.0 | 0.00 | 0.00 | 0.00 | 83 | 1012.1 |
| 20260502062528 | 8 | 278 | 0.0 | 0.0 | 0.00 | 0.00 | 0.00 | 82 | 1012.4 |
| 20260502062026 | 8 | 278 | 0.0 | 0.0 | 0.00 | 0.00 | 0.00 | 82 | 1012.4 |
| 20260502061524 | 8 | 279 | 0.0 | 0.0 | 0.00 | 0.00 | 0.00 | 82 | 1012.4 |
| 20260502061021 | 8 | 279 | 0.0 | 0.0 | 0.00 | 0.00 | 0.00 | 82 | 1012.4 |
| 20260502060515 | 8 | 280 | 0.0 | 0.0 | 0.00 | 0.00 | 0.00 | 81 | 1012.4 |
| 20260502060013 | 8 | 280 | 0.0 | 0.0 | 0.00 | 0.00 | 0.00 | 81 | 1012.4 |
| 20260502055510 | 8 | 277 | 0.0 | 0.0 | 0.00 | 0.00 | 0.00 | 81 | 1012.4 |
| 20260502055009 | 8 | 277 | 0.0 | 0.0 | 0.00 | 0.00 | 0.00 | 80 | 1012.4 |
| 20260502054507 | 8 | 278 | 0.0 | 0.0 | 0.00 | 0.00 | 0.00 | 79 | 1012.4 |
| 20260502054004 | 8 | 279 | 0.0 | 0.0 | 0.00 | 0.00 | 0.00 | 79 | 1012.7 |
| 20260502053501 | 8 | 278 | 0.0 | 0.0 | 0.00 | 0.00 | 0.00 | 78 | 1012.4 |
| 20260502052959 | 8 | 238 | 0.0 | 0.0 | 0.00 | 0.00 | 0.00 | 78 | 1012.7 |
| 20260502052457 | 9 | 244 | 0.0 | 0.0 | 0.00 | 0.00 | 0.00 | 78 | 1012.7 |
| 20260502051955 | 9 | 288 | 0.0 | 0.0 | 0.00 | 0.00 | 0.00 | 78 | 1012.7 |
| 20260502051453 | 9 | 288 | 0.0 | 0.0 | 0.00 | 0.00 | 0.00 | 78 | 1012.7 |
| 20260502050949 | 9 | 262 | 0.0 | 0.0 | 0.00 | 0.00 | 0.00 | 78 | 1013.1 |
| 20260502050446 | 9 | 257 | 0.0 | 1.6 | 0.00 | 0.00 | 0.00 | 78 | 1013.1 |
| 20260502045943 | 9 | 251 | 0.0 | 0.0 | 0.00 | 0.00 | 0.00 | 78 | 1013.1 |
| 20260502045440 | 8 | 273 | 0.0 | 0.0 | 0.00 | 0.00 | 0.00 | 78 | 1013.1 |
| 20260502044937 | 8 | 280 | 0.0 | 0.0 | 0.00 | 0.00 | 0.00 | 78 | 1013.1 |
| 20260502044432 | 9 | 283 | 0.0 | 0.0 | 0.00 | 0.00 | 0.00 | 77 | 1013.1 |
| 20260502043930 | 9 | 286 | 0.0 | 0.0 | 0.00 | 0.00 | 0.00 | 76 | 1013.1 |
| 20260502043428 | 9 | 288 | 0.0 | 0.0 | 0.00 | 0.00 | 0.00 | 76 | 1013.1 |
| 20260502042927 | 9 | 281 | 0.0 | 0.0 | 0.00 | 0.00 | 0.00 | 75 | 1012.7 |
| 20260502042424 | 9 | 284 | 0.0 | 0.0 | 0.00 | 0.00 | 0.00 | 76 | 1013.1 |
| 20260502041921 | 9 | 263 | 0.0 | 0.0 | 0.00 | 0.00 | 0.00 | 76 | 1012.7 |
| 20260502041419 | 9 | 266 | 0.0 | 0.0 | 0.00 | 0.00 | 0.00 | 76 | 1012.7 |
| 20260502040916 | 9 | 259 | 0.0 | 0.0 | 0.00 | 0.00 | 0.00 | 76 | 1012.7 |
| 20260502040413 | 9 | 250 | 0.0 | 1.6 | 0.00 | 0.00 | 0.00 | 75 | 1012.7 |
| 20260502035909 | 9 | 281 | 0.0 | 0.0 | 0.00 | 0.00 | 0.00 | 75 | 1013.1 |
| 20260502035405 | 9 | 260 | 0.0 | 0.0 | 0.00 | 0.00 | 0.00 | 75 | 1013.1 |
| 20260502034903 | 9 | 266 | 0.0 | 0.0 | 0.00 | 0.00 | 0.00 | 75 | 1013.1 |
| 20260502034402 | 9 | 253 | 1.6 | 1.6 | 0.00 | 0.00 | 0.00 | 75 | 1013.1 |
| 20260502033900 | 9 | 277 | 0.0 | 0.0 | 0.00 | 0.00 | 0.00 | 75 | 1013.1 |
| 20260502033357 | 9 | 277 | 0.0 | 0.0 | 0.00 | 0.00 | 0.00 | 74 | 1013.1 |
| 20260502032853 | 10 | 277 | 0.0 | 0.0 | 0.00 | 0.00 | 0.00 | 74 | 1013.1 |
| 20260502032349 | 10 | 269 | 0.0 | 0.0 | 0.00 | 0.00 | 0.00 | 74 | 1013.1 |
| 20260502031847 | 10 | 256 | 0.0 | 0.0 | 0.00 | 0.00 | 0.00 | 74 | 1013.1 |
| 20260502031345 | 10 | 274 | 0.0 | 1.6 | 0.00 | 0.00 | 0.00 | 74 | 1013.1 |
| 20260502030843 | 10 | 276 | 0.0 | 0.0 | 0.00 | 0.00 | 0.00 | 73 | 1013.1 |
| 20260502030341 | 10 | 266 | 0.0 | 1.6 | 0.00 | 0.00 | 0.00 | 73 | 1013.1 |
| 20260502025838 | 10 | 272 | 1.6 | 1.6 | 0.00 | 0.00 | 0.00 | 73 | 1013.1 |
| 20260502025336 | 10 | 289 | 0.0 | 0.0 | 0.00 | 0.00 | 0.00 | 73 | 1013.1 |
| 20260502024833 | 10 | 273 | 0.0 | 0.0 | 0.00 | 0.00 | 0.00 | 72 | 1013.1 |
| 20260502024331 | 10 | 281 | 0.0 | 0.0 | 0.00 | 0.00 | 0.00 | 72 | 1013.1 |
| 20260502023829 | 10 | 283 | 0.0 | 0.0 | 0.00 | 0.00 | 0.00 | 71 | 1013.1 |
| 20260502023326 | 10 | 262 | 0.0 | 1.6 | 0.00 | 0.00 | 0.00 | 71 | 1012.7 |
| 20260502022824 | 10 | 273 | 0.0 | 0.0 | 0.00 | 0.00 | 0.00 | 71 | 1013.1 |
| 20260502022320 | 10 | 266 | 1.6 | 1.6 | 0.00 | 0.00 | 0.00 | 70 | 1013.1 |
| 20260502021817 | 10 | 279 | 0.0 | 0.0 | 0.00 | 0.00 | 0.00 | 71 | 1013.1 |
| 20260502021314 | 10 | 293 | 1.6 | 1.6 | 0.00 | 0.00 | 0.00 | 70 | 1013.1 |
| 20260502020812 | 10 | 280 | 0.0 | 0.0 | 0.00 | 0.00 | 0.00 | 70 | 1012.7 |
| 20260502020309 | 10 | 276 | 1.6 | 1.6 | 0.00 | 0.00 | 0.00 | 70 | 1012.4 |
| 20260502015806 | 10 | 292 | 0.0 | 1.6 | 0.00 | 0.00 | 0.00 | 70 | 1012.7 |
| 20260502015305 | 10 | 286 | 0.0 | 1.6 | 0.00 | 0.00 | 0.00 | 70 | 1012.7 |
| 20260502014800 | 10 | 280 | 1.6 | 1.6 | 0.00 | 0.00 | 0.00 | 70 | 1013.1 |
| 20260502014257 | 10 | 275 | 0.0 | 1.6 | 0.00 | 0.00 | 0.00 | 70 | 1013.1 |
| 20260502013753 | 10 | 286 | 1.6 | 1.6 | 0.00 | 0.00 | 0.00 | 70 | 1012.7 |
| 20260502013249 | 10 | 272 | 4.8 | 6.4 | 0.00 | 0.00 | 0.00 | 70 | 1013.1 |
| 20260502012746 | 10 | 289 | 3.2 | 4.8 | 0.00 | 0.00 | 0.00 | 69 | 1012.7 |
| 20260502012243 | 10 | 282 | 0.0 | 0.0 | 0.00 | 0.00 | 0.00 | 69 | 1013.1 |
| 20260502011741 | 10 | 271 | 3.2 | 4.8 | 0.00 | 0.00 | 0.00 | 69 | 1012.7 |
| 20260502011236 | 10 | 275 | 4.8 | 6.4 | 0.00 | 0.00 | 0.00 | 68 | 1012.7 |
| 20260502010734 | 11 | 262 | 11.3 | 14.5 | 0.00 | 0.00 | 0.00 | 68 | 1012.7 |
| 20260502010230 | 11 | 271 | 6.4 | 11.3 | 0.00 | 0.00 | 0.00 | 68 | 1012.7 |
| 20260502005727 | 11 | 257 | 8.0 | 11.3 | 0.00 | 0.00 | 0.00 | 68 | 1012.7 |
| 20260502005225 | 11 | 283 | 0.0 | 1.6 | 0.00 | 0.00 | 0.00 | 68 | 1012.4 |
| 20260502004721 | 11 | 272 | 6.4 | 6.4 | 0.00 | 0.00 | 0.00 | 67 | 1012.4 |
| 20260502004218 | 11 | 283 | 6.4 | 6.4 | 0.00 | 0.00 | 0.00 | 67 | 1012.7 |
| 20260502003716 | 11 | 268 | 4.8 | 8.0 | 0.00 | 0.00 | 0.00 | 66 | 1012.4 |
| 20260502003213 | 11 | 286 | 6.4 | 8.0 | 0.00 | 0.00 | 0.00 | 65 | 1012.4 |
| 20260502002708 | 11 | 277 | 11.3 | 14.5 | 0.00 | 0.00 | 0.00 | 65 | 1012.1 |
| 20260502002207 | 11 | 278 | 1.6 | 4.8 | 0.00 | 0.00 | 0.00 | 65 | 1012.1 |
| 20260502001703 | 11 | 258 | 4.8 | 4.8 | 0.00 | 0.00 | 0.00 | 65 | 1011.7 |
| 20260502001201 | 11 | 275 | 0.0 | 0.0 | 0.00 | 0.00 | 0.00 | 66 | 1012.1 |
| 20260502000659 | 11 | 280 | 4.8 | 6.4 | 0.00 | 0.00 | 0.00 | 66 | 1011.7 |
| 20260502000156 | 11 | 269 | 4.8 | 6.4 | 0.00 | 0.00 | 0.00 | 66 | 1011.4 |
| 20260501235652 | 11 | 280 | 3.2 | 4.8 | 0.00 | 0.00 | 0.00 | 67 | 1011.4 |
| 20260501235148 | 11 | 274 | 4.8 | 6.4 | 0.00 | 0.00 | 0.00 | 66 | 1011.4 |
| 20260501234644 | 12 | 236 | 6.4 | 6.4 | 0.00 | 0.00 | 0.00 | 65 | 1011.0 |
| 20260501234141 | 12 | 285 | 3.2 | 6.4 | 0.00 | 0.00 | 0.00 | 64 | 1011.4 |
| 20260501233639 | 12 | 257 | 1.6 | 4.8 | 0.00 | 0.00 | 0.00 | 63 | 1011.4 |
| 20260501233136 | 12 | 286 | 4.8 | 6.4 | 0.00 | 0.00 | 0.00 | 62 | 1011.0 |
| 20260501232632 | 12 | 274 | 1.6 | 1.6 | 0.00 | 0.00 | 0.00 | 60 | 1011.0 |
| 20260501232130 | 12 | 271 | 4.8 | 6.4 | 0.00 | 0.00 | 0.00 | 59 | 1011.0 |
| 20260501231627 | 13 | 271 | 1.6 | 1.6 | 0.00 | 0.00 | 0.00 | 56 | 1011.0 |
| 20260501231125 | 13 | 292 | 6.4 | 8.0 | 0.00 | 0.00 | 0.00 | 52 | 1010.7 |
| 20260501230624 | 13 | 265 | 1.6 | 1.6 | 0.00 | 0.00 | 0.00 | 45 | 1011.0 |
| 20260501230121 | 13 | 246 | 4.8 | 6.4 | 0.00 | 0.00 | 0.00 | 43 | 1010.7 |
| 20260501225619 | 14 | 289 | 4.8 | 8.0 | 0.00 | 0.00 | 0.00 | 42 | 1010.4 |
| 20260501225115 | 14 | 278 | 1.6 | 1.6 | 0.00 | 0.00 | 0.00 | 41 | 1010.4 |
| 20260501224612 | 14 | 288 | 1.6 | 1.6 | 0.00 | 0.00 | 0.00 | 42 | 1010.7 |
| 20260501224109 | 14 | 255 | 3.2 | 4.8 | 0.00 | 0.00 | 0.00 | 41 | 1010.4 |
| 20260501223606 | 14 | 268 | 6.4 | 6.4 | 0.00 | 0.00 | 0.00 | 41 | 1010.4 |
| 20260501223102 | 14 | 278 | 6.4 | 8.0 | 0.00 | 0.00 | 0.00 | 40 | 1010.4 |
| 20260501222558 | 14 | 260 | 6.4 | 8.0 | 0.00 | 0.00 | 0.00 | 40 | 1010.4 |
| 20260501222055 | 14 | 284 | 3.2 | 8.0 | 0.00 | 0.00 | 0.00 | 40 | 1010.7 |
| 20260501221552 | 15 | 273 | 8.0 | 11.3 | 0.00 | 0.00 | 0.00 | 40 | 1010.4 |
| 20260501221049 | 15 | 283 | 4.8 | 6.4 | 0.00 | 0.00 | 0.00 | 40 | 1010.7 |
| 20260501220547 | 15 | 280 | 12.9 | 17.7 | 0.00 | 0.00 | 0.00 | 39 | 1010.4 |
| 20260501220044 | 15 | 278 | 12.9 | 17.7 | 0.00 | 0.00 | 0.00 | 38 | 1010.4 |
| 20260501215540 | 15 | 265 | 3.2 | 6.4 | 0.00 | 0.00 | 0.00 | 39 | 1010.4 |